Location: Lynchburg College Observatory
(37.3822°N, 79.5391°W)
Time: 23:17:26
(UTC-04:00)

Hubble Space Telescope - Visible Passes

Search period start: 21 July 2018 00:00
Search period end: 31 July 2018 00:00
Orbit: 537 x 541 km, 28.5° (Epoch: 21 July)

Date Brightness Start Highest point End Pass type
(mag) Time Alt. Az. Time Alt. Az. Time Alt. Az.
21 Jul 2.2 05:02:45 19° SSW 05:03:52 21° S 05:07:00 10° SE visible
22 Jul 2.3 04:53:17 19° SSW 04:53:26 19° S 04:56:23 10° SE visible
23 Jul 2.6 04:44:00 16° S 04:44:00 16° S 04:45:42 10° SSE visible
24 Jul 3.2 04:34:54 10° SSE 04:34:54 10° SSE 04:34:55 10° SSE visible
29 Jul 2.9 22:24:46 10° SW 22:25:45 14° SSW 22:25:45 14° SSW visible
30 Jul 2.5 22:14:12 10° SW 22:16:15 20° SSW 22:16:15 20° SSW visible
